Flag for Switzerland Weather past 2 weeks in Davos, Graubünden, Switzerland

Now
61 °F

Cool.


Feels Like: 61 °F
Forecast: 49 / 60 °F
Wind: 2 mph from North

Location: Chur-Ems

Current Time: Jul 26, 2014 at 11:09:43 AM

Latest Report: Jul 26, 2014 at 10:00 AM


Visibility: N/A

Pressure: 29.93 "Hg

Humidity: 91%

Dew point: 58 °F

Location of DavosLocation

Historic Weather in Davos — Graph

°F

Davos temperature yesterday

Maximum temperature yesterday: 80 °F (at 4:00 PM)
Minimum temperature yesterday: 54 °F (at 6:00 AM)
Average temperature yesterday: 68 °F

Past Weeks' High & Low Weather Summary

 TemperatureHumidityPressure
High93 °F (Jul 19, 3:00 PM)97% (Jul 22, 2:00 AM)30.22 "Hg (Jul 22, 2:00 AM)
Low54 °F (Jul 25, 6:00 AM)23% (Jul 19, 4:00 PM)29.75 "Hg (Jul 20, 7:00 PM)
Average67 °F70%29.96 "Hg
* Reported Jul 11 9:00 AM — Jul 26 9:00 AM, Davos, Weather by CustomWeather, © 2014

Note: Actual official high and low records may vary slightly from our data, if they occured in-between our weather recording intervals... More about our weather records

Advertising

Davos weather history for previous 24 hours

 ConditionsComfort  
Time TempWeatherWind HumidityBarometerVisibility
9:00 AM
Jul 26
62 °FCool.No wind86%29.91 "HgN/A
8:00 AM61 °FFog.2 mph89%29.91 "Hg8 mi
7:00 AM61 °FCool.1 mph88%29.91 "HgN/A
6:00 AM61 °FCool.3 mph85%29.91 "HgN/A
5:00 AM60 °FFog.3 mph88%29.92 "Hg9 mi
4:00 AM60 °FCool.1 mph91%29.93 "HgN/A
3:00 AM61 °FCool.1 mph87%29.95 "HgN/A
2:00 AM60 °FFog.1 mph86%29.96 "Hg9 mi
1:00 AM63 °FMild.2 mph78%29.95 "HgN/A
12:00 AM64 °FMild.2 mph75%29.94 "HgN/A
11:00 PM
Jul 25
65 °FRain. Passing clouds.5 mph74%29.93 "Hg6 mi
10:00 PM67 °FMild.3 mph64%29.89 "HgN/A
9:00 PM70 °FMild.8 mph59%29.84 "HgN/A
8:00 PM74 °FOvercast.7 mph52%29.80 "Hg9 mi
7:00 PM76 °FMild.9 mph46%29.78 "HgN/A
6:00 PM78 °FWarm.13 mph44%29.76 "HgN/A
5:00 PM79 °FPartly sunny.12 mph43%29.77 "Hg10 mi
4:00 PM80 °FPleasantly warm.14 mph39%29.78 "HgN/A
3:00 PM79 °FPleasantly warm.12 mph39%29.80 "HgN/A
2:00 PM80 °FPassing clouds.10 mph40%29.81 "Hg10 mi
1:00 PM77 °FMild.6 mph46%29.84 "HgN/A
12:00 PM73 °FMild.2 mph48%29.88 "HgN/A
11:00 AM71 °FPassing clouds.3 mph58%29.90 "Hg10 mi
Weather by CustomWeather, © 2014

See weather overviewHow to use our weather pages